Погода в Ширяеве

Россия / Воронежская область     50°20′28″N   40°59′02″E
темп.,
°C
ветер,
м/с
пор.,
м/с
влажн.,
%
обл.,
%
осадки,
мм/ч
давл.,
гПа
погр.,
м
29 ноября, пн
пн2900:00+5юв3895100 0.0 1012166
03:00+6юв41195100 0.1 1011247
06:00+8юв81794100 6.1 1008748
09:00+8ююв81689100 6.9 1007530
12:00+9ю61493100 0.2 1006564
15:00+11ю71393100 0.2 1005799
18:00+10ююв71495100 0.5 1003460
21:00+10ююв112184100 2.3 997690
30 ноября, вт
вт3000:00+11ю122268100 0.2 9941009
03:00+13ююз122078100 0.3 991984
06:00+11юз101682100 0.8 992992
09:00+10зюз81382100 3.5 995961
12:00+9зюз915623 0.0 9971179
15:00+8зюз7136016 0.0 9971046
18:00+5зюз4106747 0.0 997352
21:00+3з2672100 0.0 996216
1 декабря, ср
ср100:00+3зсз2574100 0.0 996239
03:00+2ссз2576100 0.1 994490
06:00+1сз3689100 0.9 994483
09:00+1зсз5977100 1.0 996634
12:00+1з7106150 0.0 998844
15:00+2зюз7106278 0.0 10001225
18:000зюз51065100 0.0 1001546
21:00−1юз489598 0.1 1002441
2 декабря, чт
чт200:000з489163 0.3 1003546
03:00−2юз4896100 0.3 1006235
06:00+1зюз5979100 0.1 1007666
09:00−1юз498292 0.1 1009363
12:00+3юз7106599 0.0 1010999
15:00+2ююз6137872 0.0 1009785
18:00+3ююз81576100 0.0 1009616
21:00+3ююз7168923 0.0 1009532
3 декабря, пт
пт300:00+4юз71686100 0.0 1010573
03:00+4юз7159198 0.0 1011540
06:00+6юз61391100 0.1 1012527
09:00+6ююз61189100 0.1 1014418
12:00+7ююз6118339 0.0 1014614
15:00+8ююз6117998 0.0 1014688
18:00+6ю61489100 0.0 1014409
21:00+6ю7188448 0.0 1014486